Downstream station:
SHEF ID: NFSM7 N Fork Spring River nr Purcell, MO
STATION TYPE:
STAGE RIV-FLOW
ft cfs
Ccp-Rev Ccp-Rev
(US/Central)
04/07 00:00 4.12 249
04/07 01:00 4.10 244
04/07 02:00 4.08 240
04/07 03:00 4.07 238
04/07 04:00 4.06 235
04/07 05:00 4.04 231
04/07 06:00 4.04 231
04/07 07:00 4.03 229
04/07 08:00 4.02 226
04/07 09:00 4.01 224
04/07 10:00 4.00 222
04/07 11:00 3.99 220
04/07 12:00 3.98 218
04/07 13:00 3.97 215
04/07 14:00 3.96 213
04/07 15:00 3.95 211
04/07 16:00 3.94 209
04/07 17:00 3.93 207
04/07 18:00 3.92 205
04/07 19:00 3.90 201
04/07 20:00 3.89 198
04/07 21:00 3.88 196
04/07 22:00 3.87 194
04/07 23:00 3.86 231